Date String (YYYY-MM-DD hh:mm:ss) UTC,Instrument flags,Ambient pressure (hPa),Sample flow (lpm),Bypass flow (lpm),Sample temperature (°C),Ambient temperature (°C),ASC tube jacket temperature (°C),LED temperature (°C),Box temperature (°C),Sample RH (%),Span deviation,Mass concentration (μg/m³),Mass concentration (μg/m³),Mass concentration (μg/m³)
DateTimeUTC,F1_M11,P_M11,Q1_M11,Q2_M11,T1_M11,T2_M11,T3_M11,T4_M11,T5_M11,U1_M11,ZSPAN_M11,X0_M11,X2_M11,X1_M11
2021-12-31 23:00:00,,0810.5,5.00,0.00,21.7,21.6,00.0,30.6,23.3,17.0,0000.0,0002.85,0001.65,0001.48
2021-12-31 23:01:00,,0810.5,4.99,0.00,21.6,21.4,00.0,30.6,23.2,17.1,0000.0,0002.59,0001.63,0001.45
2021-12-31 23:02:00,,0810.4,5.02,0.00,21.6,21.3,00.0,30.6,23.2,17.1,0000.0,0002.33,0001.59,0001.41
2021-12-31 23:03:00,,0810.5,5.00,0.00,21.6,21.1,00.0,30.6,23.1,17.1,0000.0,0002.36,0001.58,0001.38
2021-12-31 23:04:00,,0810.5,5.00,0.00,21.5,21.0,00.0,30.6,23.0,17.2,0000.0,0002.38,0001.56,0001.34
2021-12-31 23:05:00,,0810.6,5.00,0.00,21.4,20.8,00.0,30.6,23.0,17.2,0000.0,0002.43,0001.55,0001.29
2021-12-31 23:06:00,,0810.7,5.00,0.00,21.4,20.7,00.0,30.6,22.9,17.2,0000.0,0002.37,0001.48,0001.22
2021-12-31 23:07:00,,0810.7,4.99,0.00,21.3,20.7,00.0,30.5,22.8,17.3,0000.0,0002.32,0001.47,0001.22
2021-12-31 23:08:00,,0810.7,4.98,0.00,21.3,21.0,00.0,30.5,22.9,17.3,0000.0,0002.46,0001.56,0001.30
2021-12-31 23:09:00,,0810.7,5.01,0.00,21.5,21.8,00.0,30.6,23.3,17.1,0000.0,0002.40,0001.52,0001.28
2021-12-31 23:10:00,,0810.7,5.00,0.00,21.7,22.5,00.0,30.6,23.6,16.9,0000.0,0002.30,0001.45,0001.24
2021-12-31 23:11:00,,0810.7,5.00,0.00,21.8,22.9,00.0,30.7,23.8,16.8,0000.0,0002.06,0001.40,0001.20
2021-12-31 23:12:00,,0810.7,4.99,0.00,21.8,22.4,00.0,30.7,23.5,16.7,0000.0,0001.92,0001.35,0001.16
2021-12-31 23:13:00,,0810.7,5.01,0.00,21.7,21.8,00.0,30.7,23.2,16.8,0000.0,0001.93,0001.34,0001.12
2021-12-31 23:14:00,,0810.7,4.99,0.00,21.6,21.4,00.0,30.7,23.0,16.9,0000.0,0002.00,0001.31,0001.08
2021-12-31 23:15:00,,0810.7,4.99,0.00,21.5,21.1,00.0,30.6,22.9,16.9,0000.0,0002.27,0001.28,0001.04
2021-12-31 23:16:00,,0810.7,5.00,0.00,21.4,20.7,00.0,30.6,22.7,17.0,0000.0,0002.17,0001.21,0001.00
2021-12-31 23:17:00,,0810.9,5.00,0.00,21.3,20.5,00.0,30.6,22.6,17.1,0000.0,0002.11,0001.17,0000.96
2021-12-31 23:18:00,,0810.9,5.01,0.00,21.2,20.4,00.0,30.5,22.5,17.2,0000.0,0002.06,0001.11,0000.89
2021-12-31 23:19:00,,0810.9,5.01,0.00,21.1,20.3,00.0,30.5,22.4,17.2,0000.0,0001.98,0001.00,0000.75
2021-12-31 23:20:00,,0811.0,5.00,0.00,21.1,20.9,00.0,30.5,22.7,17.2,0000.0,0001.98,0000.98,0000.68
2021-12-31 23:21:00,,0811.0,5.00,0.00,21.3,21.9,00.0,30.5,23.1,17.0,0000.0,0002.04,0000.99,0000.66
2021-12-31 23:22:00,,0811.0,4.99,0.00,21.5,22.6,00.0,30.6,23.4,16.8,0000.0,0002.23,0000.98,0000.64
2021-12-31 23:23:00,,0810.9,5.00,0.00,21.6,22.6,00.0,30.6,23.5,16.7,0000.0,0002.29,0000.99,0000.63
2021-12-31 23:24:00,,0811.0,5.00,0.00,21.6,22.1,00.0,30.6,23.3,16.7,0000.0,0002.25,0000.95,0000.61
2021-12-31 23:25:00,,0811.0,5.01,0.00,21.5,21.7,00.0,30.6,23.0,16.8,0000.0,0002.20,0000.91,0000.60
2021-12-31 23:26:00,,0811.0,4.99,0.00,21.4,21.4,00.0,30.6,22.8,16.8,0000.0,0001.77,0000.87,0000.58
2021-12-31 23:27:00,,0811.0,5.01,0.00,21.3,21.1,00.0,30.5,22.7,16.9,0000.0,0001.77,0000.85,0000.58
2021-12-31 23:28:00,,0811.0,5.00,0.00,21.2,20.8,00.0,30.5,22.6,16.9,0000.0,0002.32,0000.86,0000.57
2021-12-31 23:29:00,,0811.0,5.01,0.00,21.2,20.7,00.0,30.5,22.6,17.0,0000.0,0002.35,0000.85,0000.57
2021-12-31 23:30:00,,0811.2,5.01,0.00,21.1,20.5,00.0,30.4,22.5,17.1,0000.0,0002.24,0000.80,0000.55
2021-12-31 23:31:00,,0811.2,5.00,0.00,21.1,20.5,00.0,30.4,22.5,17.1,0000.0,0002.17,0000.76,0000.54
2021-12-31 23:32:00,,0811.3,5.00,0.00,21.2,21.3,00.0,30.4,22.8,17.0,0000.0,0002.09,0000.74,0000.53
2021-12-31 23:33:00,,0811.3,5.00,0.00,21.4,22.3,00.0,30.5,23.2,16.9,0000.0,0001.85,0000.72,0000.52
2021-12-31 23:34:00,,0811.3,5.01,0.00,21.5,22.7,00.0,30.5,23.4,16.7,0000.0,0001.80,0000.70,0000.53
2021-12-31 23:35:00,,0811.3,4.99,0.00,21.6,22.4,00.0,30.5,23.4,16.6,0000.0,0001.81,0000.75,0000.58
2021-12-31 23:36:00,,0811.3,5.00,0.00,21.5,22.0,00.0,30.5,23.2,16.7,0000.0,0001.99,0000.88,0000.67
2021-12-31 23:37:00,,0811.5,5.02,0.00,21.5,21.7,00.0,30.5,23.1,16.7,0000.0,0002.37,0001.10,0000.82
2021-12-31 23:38:00,,0811.5,4.99,0.00,21.5,21.5,00.0,30.5,23.1,16.7,0000.0,0002.73,0001.39,0001.05
2021-12-31 23:39:00,,0811.6,4.99,0.00,21.4,21.3,00.0,30.5,23.0,16.8,0000.0,0002.66,0001.59,0001.25
2021-12-31 23:40:00,,0811.6,5.00,0.00,21.4,21.1,00.0,30.5,22.9,16.8,0000.0,0002.88,0001.76,0001.41
2021-12-31 23:41:00,,0811.5,5.00,0.00,21.4,21.0,00.0,30.5,22.9,16.8,0000.0,0003.17,0001.99,0001.63
2021-12-31 23:42:00,,0811.5,4.99,0.00,21.4,20.9,00.0,30.5,22.9,16.8,0000.0,0003.50,0002.20,0001.83
2021-12-31 23:43:00,,0811.5,5.01,0.00,21.3,20.9,00.0,30.5,22.9,16.8,0000.0,0003.79,0002.37,0001.97
2021-12-31 23:44:00,,0811.5,5.01,0.00,21.3,20.9,00.0,30.5,22.9,16.8,0000.0,0004.01,0002.47,0002.05
2021-12-31 23:45:00,,0811.4,4.99,0.00,21.3,20.9,00.0,30.5,23.0,16.8,0000.0,0004.08,0002.52,0002.10
2021-12-31 23:46:00,,0811.4,5.01,0.00,21.3,20.9,00.0,30.4,22.9,16.8,0000.0,0004.03,0002.49,0002.08
2021-12-31 23:47:00,,0811.3,5.00,0.00,21.3,20.8,00.0,30.4,22.9,16.8,0000.0,0003.86,0002.39,0002.01
2021-12-31 23:48:00,,0811.3,5.00,0.00,21.3,20.9,00.0,30.4,22.9,16.8,0000.0,0003.55,0002.21,0001.88
2021-12-31 23:49:00,,0811.3,4.99,0.00,21.4,21.6,00.0,30.5,23.2,16.8,0000.0,0003.16,0001.98,0001.67
2021-12-31 23:50:00,,0811.4,5.00,0.00,21.6,22.5,00.0,30.5,23.5,16.6,0000.0,0002.97,0001.80,0001.49
2021-12-31 23:51:00,,0811.3,5.00,0.00,21.7,23.0,00.0,30.6,23.8,16.5,0000.0,0002.66,0001.61,0001.33
2021-12-31 23:52:00,,0811.3,5.00,0.00,21.8,22.8,00.0,30.6,23.8,16.4,0000.0,0002.37,0001.40,0001.13
2021-12-31 23:53:00,,0811.3,4.99,0.00,21.8,22.5,00.0,30.6,23.7,16.4,0000.0,0002.04,0001.20,0000.96
2021-12-31 23:54:00,,0811.2,5.01,0.00,21.8,22.2,00.0,30.6,23.6,16.4,0000.0,0001.79,0001.05,0000.84
2021-12-31 23:55:00,,0811.2,5.01,0.00,21.8,22.0,00.0,30.7,23.5,16.4,0000.0,0001.68,0000.99,0000.80
2021-12-31 23:56:00,,0811.2,4.99,0.00,21.8,21.8,00.0,30.7,23.4,16.4,0000.0,0001.80,0000.97,0000.79
2021-12-31 23:57:00,,0811.2,5.01,0.00,21.7,21.6,00.0,30.7,23.3,16.5,0000.0,0001.89,0001.03,0000.81
2021-12-31 23:58:00,,0811.3,4.99,0.00,21.7,21.4,00.0,30.7,23.2,16.5,0000.0,0001.98,0001.09,0000.86
2021-12-31 23:59:00,,0811.3,5.02,0.00,21.6,21.1,00.0,30.7,23.1,16.6,0000.0,0002.05,0001.14,0000.91
